Regional Weather Roundup
Issued by NWS Upton, NY

Current Version | Previous Version | Text Only | Print | Product List | Glossary On
Versions: 1 2 3 4 5 6 7 8 9 10 11 12 13 14 15 16 17 18 19 20 21 22 23 24 25 26 27
000
ASUS41 KOKX 060108
RWROKX

REGIONAL WEATHER ROUNDUP
NATIONAL WEATHER SERVICE NEW YORK NY
800 PM EST MON DEC 05 2016

NOTE: "FAIR" INDICATES FEW OR NO CLOUDS BELOW 12,000 FEET WITH NO
SIGNIFICANT WEATHER AND/OR OBSTRUCTIONS TO VISIBILITY.

NYZ071-072-176-178-NJZ106-104-060200-
NEW YORK CITY METRO AREA

CITY           SKY/WX    TMP DP  RH WIND       PRES   REMARKS
Central Park   PTCLDY    45  32  60 CALM      30.08R
Wall St Helipt CLOUDY    46  34  62 W6        30.07R
Bronx Bot Gard NOT AVBL
LaGuardia APRT PTCLDY    47  33  58 NW9       30.05R
Kennedy INTL   MOCLDY    46  31  55 NW9       30.07R
Breezy Point     N/A     45 N/A N/A NW5         N/A
Newark/Liberty CLOUDY    44  34  67 W5        30.06R
Teterboro      CLOUDY    44  32  62 NW3       30.05R
$$

NYZ177-179-078>081-060200-
LONG ISLAND NEW YORK

CITY           SKY/WX    TMP DP  RH WIND       PRES   REMARKS
Jones Beach      N/A     45 N/A N/A NW7         N/A
Matinecock PT    N/A     46 N/A N/A NW10        N/A
Farmingdale    PTCLDY    44  28  53 NW5       30.05R
MacArthur/ISP  MOCLDY    42  30  62 NW8       30.04R
Shirley        CLEAR     37  32  82 CALM      30.05R
Westhampton    CLEAR     33  29  85 NW5       30.05R WCI  29
Southampton    NOT AVBL
Bridgehampton  NOT AVBL
East Hampton     N/A     42  32  68 NW3       30.02R
Montauk          N/A     45  34  65 NW13G21   30.03R
$$

NYZ052-065-067-060200-
HUDSON VALLEY

CITY           SKY/WX    TMP DP  RH WIND       PRES   REMARKS
White Plains   CLEAR     39  27  62 NW5       30.03R
Newburgh       PTCLDY    37  30  75 NW7       30.04R WCI  32
Montgomery     MOCLDY    32  28  85 CALM      30.04R
Poughkeepsie   CLEAR     37  28  70 W10       30.02S WCI  30
Albany         MOCLDY    38  31  76 W7        30.01R WCI  33
$$

NJZ001-105-106-008-010-013-015-019>022-104-060200-
NEW JERSEY

CITY           SKY/WX    TMP DP  RH WIND       PRES   REMARKS
Newark/Liberty CLOUDY    44  34  67 W5        30.06R
Teterboro      CLOUDY    44  32  62 NW3       30.05R
Caldwell       CLOUDY    37  33  85 CALM      30.06R
Somerville     CLOUDY    32  30  92 CALM      30.06R
Linden           N/A     41  33  72 CALM      30.07R
Sussex         CLOUDY    32  30  92 CALM      30.05R
Andover          N/A     31  30  96 CALM      30.05R
Trenton        PTCLDY    39  33  79 W5        30.07R
Millville      PTCLDY    35  35 100 CALM      30.09R
Atlantic City  PTCLDY    40  35  83 CALM      30.08R
Wrightstown    CLOUDY    37  32  82 CALM      30.05R
Toms River     CLOUDY    31  29  92 CALM      30.08R
Belmar         CLOUDY    38  32  79 W5        30.07R WCI  34
$$

PAZ047>061-062-071-060200-
EASTERN PENNSYLVANIA

CITY           SKY/WX    TMP DP  RH WIND       PRES   REMARKS
Philadelphia   MOCLDY    47  33  58 NW10      30.10R
Allentown      CLOUDY    39  29  67 W6        30.08R WCI  35
Scranton       CLOUDY    38  28  67 CALM      30.05R
$$

CTZ002-004>006-009-010-012-RIZ004-006-007-MAZ004-011-015-060200-
SOUTHERN NEW ENGLAND
 IN CT

CITY           SKY/WX    TMP DP  RH WIND       PRES   REMARKS
Bradley INTL   CLOUDY    39  31  72 SW6       30.01R WCI  35
Hartford       CLOUDY    41  33  73 W6        30.02R
Danbury        PTCLDY    35  30  82 SE5       30.04R WCI  31
Wtrbury/Oxford PTCLDY    37  28  70 CALM      30.02R
Bridgeport     PTCLDY    42  33  70 NW3       30.04R
Meriden        PTCLDY    32  28  85 CALM      30.03R
New Haven      PTCLDY    36  30  79 CALM      30.03R
Chester          N/A     37  32  81 CALM      30.01R
Groton         PTCLDY    42  34  73 W7        30.02R
Wilimantic     CLOUDY    33  32  96 CALM      30.01R

 IN RI

CITY           SKY/WX    TMP DP  RH WIND       PRES   REMARKS
Providence     CLEAR     40  31  70 W12       29.98R WCI  33
Block Island   CLEAR     44  32  62 NW17G28   30.00R
Westerly       CLEAR     40  31  70 W5        30.02R
 IN MA

CITY           SKY/WX    TMP DP  RH WIND       PRES   REMARKS
Boston         PTCLDY    39  33  79 W9        29.95S WCI  33
Worcester      CLEAR     32  29  88 W3        29.94R
Westfield      MOCLDY    34  34 100 VRB3      29.99R
Provincetown   CLEAR     41  35  79 W17G23    29.94S
Nantucket      CLEAR     40  35  83 W9        29.95R WCI  34
$$

ANZ330-335-338-340-345-350-353-355-060200-
COASTAL MARINE OBSERVATIONS


STATION/POSITION TIME  SKY/WX   TEMP    WIND        PRES    VSBY  WAVE
                                AIR SEA DIR/SP/G                  HT/PER
                 (UTC)          (F)     (DEG/KT/KT) (MB)    (MI)  (FT/S)
NY HARB ENTRANCE 2350            48 53  310/ 14/ 16 1016.9          2/ 3
20 S FIRE ISLAND 2350            49 54  330/ 17/ 21 1016.4          4/ 4
GREAT SOUTH BAY  NOT AVBL
23 SSW MONTAUK P 2350            48 54  310/ 16/ 19 1016.1          3/ 5
15 E BARNEGAT LI 0030               54                N/A           3/ 4
HUDSON CANYON    2350            51 58              1015.8          4/ 5
KINGS POINT      0024            45 48              1017.3
EXECUTION ROCKS  0045            46     300/ 10/ 12   N/A
CENTRAL LI SOUND 0015            46 50  300/ 12/ 14   N/A           2/ 3
EASTERN LI SOUND NOT AVBL
ROBBINS REEF     0024            45     330/  4/  5 1017.8
$$


>>>>>>>>>>>>>>>>>>>>>>>>>>>> KEY <<<<<<<<<<<<<<<<<<<<<<<<<<<
>                                                          <
>     SKY/WX - Sky Condition/Present Weather               <
>     TMP    - Temperature in Fahrenheit                   <
>     DP     - Dew Point in Fahrenheit                     <
>     RH     - Relative Humidity in Percent                <
>     WIND   - Direction (from) and Speed in MPH           <
>     PRES   - Mean Sea Level Pressure (inches of Hg)      <
>     WCI    - Wind Chill Index                            <
>     VSB    - VISIBILITY IN MILES                         <
>     HX     - HEAT INDEX                                  <
>     TC     - TEMPERATURE IN CELSIUS                      <
>     VRB    - VARIABLE WIND DIRECTION                     <
>                                                          <
>>>>>>>>>>>>>>>>>>>>>>>>>>>> KEY <<<<<<<<<<<<<<<<<<<<<<<<<<<




USA.gov is the U.S. government's official web portal to all federal, state and local government web resources and services.